www.pogodaiklimat.ru

Погода и климат >> Архив погоды >> Узбекистан >> Жаслык


ПОГОДА в Жаслыке

  • Прогноз погоды в Жаслыке
  • Монитор погоды в Жаслыке
  • Климат города

АРХИВ ПОГОДЫ в Жаслыке

Время (UTC), дата Ветер
(напр.,м/с)
 
Видим.   Явления Облачность Т
(С)
Тd
(С)
f
(%)
Тe
(С)
Тes
(С)
Комфортность P
(гПа)
Po
(гПа)
Тmin
(С)
Tmax
(С)
R
(мм)
R24
(мм)
S
(см)
15 8.11 З 2 20 км ясно +3.1 -4.5 57 +1 +1 1026.4 1010.4 +8.6
18 8.11 Ю 2 20 км ясно -0.6 -8.3 56 -4 -4 1027.1 1010.8 +8.6
21 8.11 СВ 2 20 км ясно -3.1 -7.7 71 -7 -7 1026.4 1009.9
00 9.11 СВ 2 20 км ясно -4.7 -7.8 79 -9 -9 1025.8 1009.3
03 9.11 СВ 2 20 км ясно -6.6 -9.0 83 -11 -11 1025.5 1008.9
06 9.11 В 3 20 км 3/0
[Ac trans]
+3.2 -4.0 59 -0 +2 1026.0 1010.0 -6.6
09 9.11 ЮВ 3 20 км 8/0
[Ci sp]
+7.1 -3.6 46 +5 +8 1024.2 1008.4
12 9.11 СВ 3 20 км 3/0
[Ac trans]
+7.6 -4.4 42 +5 +6 1023.5 1007.7
15 9.11 СВ 3 20 км ясно +1.9 -4.4 63 -2 -2 1024.0 1007.8 +8.7
18 9.11 СВ 3 20 км ясно -2.0 -6.2 73 -7 -7 1024.4 1008.0 +8.7
21 9.11 С 2 20 км ясно -3.5 -6.3 81 -8 -8 1024.9 1008.4
00 10.11 СВ 2 20 км ясно -3.9 -5.8 87 -8 -8 1025.0 1008.5
03 10.11 СВ 2 20 км 9/9 600 м
[Sc]
-2.2 -4.4 85 -6 -6 1024.9 1008.5
06 10.11 СВ 2 20 км 10/0
[Ac und]
+4.0 -1.9 65 +2 +2 1025.9 1009.9 -4.7
09 10.11 СВ 1 20 км 6/0
[Ac trans]
+7.4 -3.6 46 +7 +10 1024.9 1009.1
12 10.11 СВ 2 20 км 6/0
[Ac trans]
+6.9 -2.4 52 +5 +6 1025.3 1009.4
15 10.11 В 2 20 км ясно +1.9 -3.5 67 -1 -1 1025.7 1009.5 +8.1
18 10.11 В 3 20 км ясно +2.4 -1.0 78 -2 -2 1025.8 1009.6 +8.1
21 10.11 СВ 1 20 км ясно +2.4 -0.3 82 +1 +1 1027.1 1010.9
00 11.11 В 2 20 км ясно +1.7 -0.8 83 -2 -2 1027.0 1010.8
03 11.11 С 1 20 км 10/10 600 м
[Sc]
+1.4 -1.5 81 -0 -0 1027.6 1011.3
06 11.11 В 6 20 км 10/10 600 м
[Sc]
+1.9 -5.8 57 -4 -4 1029.3 1013.1 +1.3
09 11.11 В 6 20 км 10/10 600 м
[Sc]
+3.2 -6.3 50 -2 -2 1029.5 1013.4
12 11.11 В 15
{20}
20 км 10/10 600 м
[Sc]
+2.8 -6.1 52 -5 -5 1031.0 1014.8
15 11.11 В 23 20 км 10/10 600 м
[Sc]
-3.7 -9.6 64 -16 -16 1034.4 1017.7 +4.2
18 11.11 В 23
{28}
10 км слабый снег 10/10 600 м
[Sc]
-5.5 -10.6 67 -18 -18 1035.8 1018.8 +4.2
21 11.11 В 23
{28}
20 км 10/10 600 м
[Sc]
-6.6 -9.4 80 -20 -20 1036.8 1020.0
00 12.11 В 23
{28}
20 км 10/10 600 м
[Sc]
-6.4 -10.9 70 -20 -20 1037.8 1021.0
03 12.11 В 23 20 км 10/9 600 м
[Sc]
-7.0 -12.2 66 -20 -20 1039.2 1022.3
06 12.11 В 18 20 км 4/0
[Ci sp]
-6.1 -20.6 31 -18 -18 1041.5 1024.6 -7.0 0.5
09 12.11 В 20 20 км ясно -3.0 -24.2 18 -13 -13 1041.4 1024.6
12 12.11 В 22
{27}
20 км ясно -3.0 -22.9 20 -14 -14 1041.4 1024.6
15 12.11 В 15 20 км ясно -5.8 -19.9 32 -16 -16 1042.5 1025.6 -2.0
18 12.11 В 13
{20}
20 км ясно -7.3 -17.5 44 -18 -18 1043.1 1026.1 -2.0
21 12.11 В 12 20 км ясно -9.2 -17.4 51 -20 -20 1043.1 1025.9
00 13.11 В 12 20 км ясно -10.6 -17.9 55 -22 -22 1043.0 1025.8
03 13.11 В 12 20 км 8/0
[Ci fib]
-11.8 -18.0 60 -24 -24 1042.7 1025.4
06 13.11 В 7 20 км 9/0
[Ci fib]
-6.1 -18.1 38 -14 -13 1042.4 1025.5 -11.8
09 13.11 В 13 20 км 4/0
[Ci fib]
-1.7 -20.7 22 -10 -10 1041.0 1024.4
12 13.11 В 15
{20}
20 км 3/0
[Ci fib]
-2.5 -18.5 28 -12 -12 1040.1 1023.5
15 13.11 СВ 8 20 км ясно -5.1 -16.0 42 -13 -13 1040.5 1023.6 -1.1
18 13.11 В 8 20 км ясно -6.2 -14.9 50 -15 -15 1040.1 1023.2 -1.1
21 13.11 В 5 20 км ясно -8.6 -14.5 62 -16 -16 1039.8 1022.8
00 14.11 СВ 5 20 км ясно -10.0 -15.3 65 -18 -18 1038.9 1021.8
03 14.11 СВ 3 20 км ясно -12.2 -17.4 65 -18 -18 1039.0 1021.8
06 14.11 В 3 20 км 1/0
[Ci sp]
-4.1 -15.4 41 -9 -7 1038.5 1021.8 -12.2
09 14.11 В 12 20 км ясно -0.4 -16.9 28 -8 -8 1036.7 1020.3
12 14.11 В 7 20 км ясно 0.0 -16.6 27 -6 -6 1036.2 1019.8
15 14.11 СВ 5 20 км ясно -5.7 -15.3 47 -12 -12 1036.1 1019.3 +0.8
18 14.11 В 6 20 км ясно -6.0 -13.9 54 -13 -13 1036.2 1019.4 +0.8
21 14.11 СВ 4 20 км ясно -7.6 -14.1 60 -14 -14 1036.4 1019.5
00 15.11 В 4 20 км ясно -8.2 -15.1 58 -15 -15 1036.4 1019.5
03 15.11 СВ 5 20 км ясно -9.1 -16.5 55 -17 -17 1035.0 1018.1
06 15.11 В 6 20 км ясно -2.8 -18.4 29 -9 -8 1036.7 1020.1 -9.2
09 15.11 В 14 20 км ясно +2.2 -18.1 21 -5 -5 1034.3 1018.0

 

Местоположение метеостанции Жаслык (Каракалпакстан, Узбекистан): широта 43.88 долгота 57.52 высота над уровнем моря 128 м.

В архиве по умолчанию представлена погода в Жаслыке за последнюю неделю. Архивные данные за месяц целиком и за предыдущие месяцы, начиная с января 2011 года, Вы можете получить, выбрав интересующий диапазон дат из раскрывающегося списка и нажав кнопку "Ввод!".


*Определитесь, кто Вы:
робот инопланетянин человек

Внимание! Время в таблицах - всемирное. Для получения местного времени необходимо прибавить поправку, которая в Жаслыке равна 5 ч.

Смотрите также архив погоды в соседних городах и на ближайших метеорологических станциях:

Погода в Муйнаке (Каракалпакстан, Узбекистан) (98 км)
Погода в Каракалпакии (Каракалпакстан, Узбекистан) (144 км)
Погода в Кунграде (Каракалпакстан, Узбекистан) (144 км)
Погода в Саме (Мангистауская область, Казахстан) (202 км)
Погода в Чимбае (Каракалпакстан, Узбекистан) (213 км)
Погода в Кенеургенче (Дашогузский велаят, Туркменистан) (219 км)
Погода в Тахтакупыре (Каракалпакстан, Узбекистан) (231 км)
Погода в Нукусе (Каракалпакстан, Узбекистан) (233 км)
Погода в Тахиаташе (Каракалпакстан, Узбекистан) (236 км)
Погода в Бейнеу (Мангистауская область, Казахстан) (244 км)

Пояснения к столбцам:

Ветер - указаны скорость ветра в м/с - средняя за 10 мин, порывы в срок и между сроками (в фигурных скобках) и направление, откуда дует ветер: С - северный, СВ - северо-восточный, В - восточный, ЮВ - юго-восточный, Ю - южный, ЮЗ - юго-западный, З - западный, СЗ - северо-западный.
Видимость - горизонтальная дальность видимости в метрах или километрах. При видимости от 1 до 10 км при отсутствии осадков обычно наблюдается дымка, при ухудшении видимости до 1 км и менее - туман. В сухую погоду видимость может ухудшаться дымом, пылью или мглою.
Явления - указаны атмосферные явления, наблюдавшиеся в срок или в последний час перед сроком; фигурными скобками обозначены явления, наблюдавшиеся между сроками (за 1-3 часа до срока); квадратными скобками обозначены град или гололедные отложения с указанием их диаметра в мм.
Облачность - указаны через наклонную черту общая и нижняя облачность в баллах и высота нижней границы облаков в метрах; квадратными скобками обозначены формы облаков: Ci - перистые, Cs - перисто-слоистые, Cc - перисто-кучевые, Ac - высококучевые, As - высокослоистые, Sc - слоисто-кучевые, Ns - слоисто-дождевые, Cu - кучевые, Cb - кучево-дождевые. Подробнее классификацию облаков см. в Атласе облаков (PDF).
T - Температура воздуха - температура, измеренная на высоте 2 м над землей.
Td - Температура точки росы - температура, при понижении до которой содержащийся в воздухе водяной пар достигнет насыщения.
f - Относительная влажность воздуха - влажноcть воздуха, измеренная на высоте 2 м над землей.
Te - Эффективная температура - температура, которую ощущает одетый по сезону человек в тени. Характеристика душности погоды. При расчете учитывается влияние влажности воздуха и скорости ветра на теплоощущения человека.
Tes - Эффективная температура на солнце - температура, которую ощущает человек, с поправкой на солнечный нагрев. Характеристика знойности погоды. Зависит от высоты солнца над горизонтом, облачности и скорости ветра. Ночью, в пасмурную погоду, а также при ветре 12 м/с и более поправка равна нулю.
P - Атмосферное давление - приведенное к уровню моря атмосферное давление.
Po - Атмосферное давление - измеренное на уровне метеостанции атмосферное давление.
Tmin - Минимальная температура - минимум температуры воздуха на высоте 2 м над землей.
Tmax - Максимальная температура - максимум температуры воздуха на высоте 2 м над землей.
R - Количество осадков - Количество выпавших осадков за период времени, мм. При наведении курсора мыши на число - период времени, за который выпало указанное количество осадков.
R24 - Количество осадков - Количество выпавших осадков за 24 часа, мм.
S - Снежный покров - Высота снежного покрова, см. При наведении курсора мыши на число - состояние снежного покрова и степень покрытия местности в баллах.